This is the latest recevied weather packets stored in our database for station/object SP6FIG. If no packets are shown the sender has not sent any weather packets the latest 10 day(s).
| Time | Temp. | Humidity | Pressure | Rain* | Wind** | Luminosity | Snow |
|---|---|---|---|---|---|---|---|
| 1777473190 | 22.78° C | 27% | 978.9 hPa | - | - | - | - |
| 1777472590 | 23.33° C | 27% | 978.8 hPa | - | - | - | - |
| 1777471990 | 22.78° C | 25% | 978.7 hPa | - | - | - | - |
| 1777471390 | 23.33° C | 25% | 978.7 hPa | - | - | - | - |
| 1777470790 | 23.89° C | 26% | 978.6 hPa | - | - | - | - |
| 1777469591 | 23.33° C | 23% | 978.7 hPa | - | - | - | - |
| 1777468990 | 22.22° C | 27% | 978.6 hPa | - | - | - | - |
| 1777468390 | 22.78° C | 27% | 978.6 hPa | - | - | - | - |
| 1777467790 | 23.33° C | 28% | 978.4 hPa | - | - | - | - |
| 1777467191 | 22.78° C | 28% | 978.5 hPa | - | - | - | - |
| 1777466590 | 22.78° C | 27% | 978.6 hPa | - | - | - | - |
| 1777465990 | 22.22° C | 27% | 978.4 hPa | - | - | - | - |
| 1777465390 | 21.67° C | 28% | 978.4 hPa | - | - | - | - |
| 1777464790 | 21.67° C | 26% | 978.5 hPa | - | - | - | - |
| 1777464190 | 21.67° C | 26% | 978.5 hPa | - | - | - | - |
| 1777463590 | 21.67° C | 26% | 978.4 hPa | - | - | - | - |
| 1777462990 | 20.56° C | 21% | 978.4 hPa | - | - | - | - |
| 1777462390 | 20° C | 28% | 978.5 hPa | - | - | - | - |
| 1777461791 | 22.22° C | 36% | 978.5 hPa | - | - | - | - |
| 1777461190 | 22.22° C | 35% | 978.5 hPa | - | - | - | - |
| 1777460590 | 21.67° C | 30% | 978.4 hPa | - | - | - | - |
| 1777459990 | 21.67° C | 29% | 978.6 hPa | - | - | - | - |
| 1777458790 | 21.67° C | 30% | 978.4 hPa | - | - | - | - |
| 1777458190 | 21.67° C | 30% | 978.5 hPa | - | - | - | - |
| 1777457590 | 21.67° C | 31% | 978.4 hPa | - | - | - | - |
* Rain since midnight (hover to see other rain measurements)
** Current wind speed in m/s (hover to see current wind gust speed)